• Join FlightAware (Why Join?)
  • Login
  • US Flag GB Flag 
15:19 EDT


 

Airport Tracker/Info


-or-


 

Live Flight TrackerFlight Track Log ✈ AAY840 ✈ 24-Jul-2014 ✈ KPIE - KTRI

Flight Track Log - Related Links

Times and Time Zones

All times are in EDT time to prevent confusion due to time zone crossing. See the AAY840 flight status page for this flight to view local times or setup timezone preferences in your user account.

Time Position Orientation Groundspeed Altitude Reporting Facility
EDT Latitude Longitude Course Direction KTS MPH feet Rate Location/Type
08:02 27.9333 -82.7000 41° Northeast 162 186 800  Level Tampa TRACON
08:03 27.9667 -82.6667 41° Northeast 214 246 2,100 1,860 Climbing Tampa TRACON
08:04 28.0333 -82.6667 360° North 284 327 4,400 2,640 Climbing Tampa TRACON
08:05 28.1167 -82.7000 341° North 298 343 7,700 2,280 Climbing Tampa TRACON
08:07 28.3022 -82.7039 359° North 313 360 11,600 2,040 Climbing Jacksonville Center
08:08 28.4189 -82.7039 360° North 366 421 13,900 2,280 Climbing Jacksonville Center
08:09 28.5358 -82.7106 357° North 402 463 16,200 2,100 Climbing Jacksonville Center
08:10 28.6569 -82.7128 359° North 421 484 18,200 1,920 Climbing Jacksonville Center
08:11 28.7656 -82.7125 360° North 427 491 20,100 1,860 Climbing Jacksonville Center
08:12 28.8928 -82.7147 359° North 438 504 22,000 1,680 Climbing Jacksonville Center
08:13 29.0242 -82.7169 359° North 454 522 23,500 1,500 Climbing Jacksonville Center
08:14 29.1619 -82.7214 358° North 470 541 25,100 1,920 Climbing Jacksonville Center
08:15 29.2914 -82.7236 359° North 476 548 27,400 2,040 Climbing Jacksonville Center
08:16 29.4208 -82.7208 North 471 542 29,200 1,800 Climbing Jacksonville Center
08:17 29.5628 -82.7111 North 460 529 31,000 1,500 Climbing Jacksonville Center
08:18 29.6858 -82.6989 North 449 517 32,300 960 Climbing Jacksonville Center
08:19 29.8111 -82.6842 North 444 511 33,000 300 Climbing Jacksonville Center
08:20 29.9344 -82.6719 North 444 511 32,900 -60 Descending Jacksonville Center
08:21 30.0617 -82.6550 North 444 511 32,900  Level Jacksonville Center
08:22 30.1869 -82.6450 North 444 511 32,900  Level Jacksonville Center
08:23 30.3122 -82.6350 North 439 505 32,900  Level Jacksonville Center
08:24 30.4375 -82.6228 North 445 512 32,900  Level Jacksonville Center
08:25 30.5628 -82.6078 North 445 512 33,000  Climbing Jacksonville Center
08:26 30.6900 -82.5978 North 445 512 33,000 -60 Level Jacksonville Center
08:27 30.8172 -82.5853 North 451 519 32,900  Descending Jacksonville Center
08:28 30.9447 -82.5728 North 451 519 33,000  Climbing Jacksonville Center
08:29 31.0553 -82.5628 North 451 519 33,000  Level Jacksonville Center
08:30 31.1828 -82.5478 North 451 519 33,000  Level Jacksonville Center
08:31 31.3078 -82.5375 North 451 519 33,000  Level Jacksonville Center
08:32 31.4497 -82.5175 North 451 519 33,000  Level Jacksonville Center
08:33 31.5750 -82.5025 North 451 519 33,000  Level Jacksonville Center
08:34 31.6306 -82.4975 North 466 536 33,000  Level Atlanta Center
08:35 31.7556 -82.4758 North 466 536 33,000  Level Atlanta Center
08:36 31.8825 -82.4564 North 461 531 33,000  Level Atlanta Center
08:37 32.0094 -82.4344 North 461 531 33,000  Level Atlanta Center
08:38 32.1367 -82.4150 North 461 531 33,000  Level Atlanta Center
08:39 32.2658 -82.3956 North 461 531 33,000  Level Atlanta Center
08:40 32.3928 -82.3736 North 461 531 33,000  Level Atlanta Center
08:41 32.5219 -82.3564 North 461 531 33,000  Level Atlanta Center
08:42 32.6511 -82.3317 North 461 531 33,000  Level Atlanta Center
08:43 32.7803 -82.3144 North 461 531 33,000  Level Atlanta Center
08:44 32.9114 -82.2919 North 466 536 33,000  Level Atlanta Center
08:45 33.0425 -82.2719 North 466 536 33,000  Level Atlanta Center
08:46 33.1717 -82.2494 North 466 536 33,000  Level Atlanta Center
08:47 33.3031 -82.2294 North 466 536 33,000  Level Atlanta Center
08:48 33.4425 -82.2042 North 466 536 33,000  Level Atlanta Center
08:49 33.5756 -82.1839 North 466 536 33,000  Level Atlanta Center
08:50 33.7028 -82.1611 North 466 536 33,000  Level Atlanta Center
08:51 33.8339 -82.1406 North 466 536 33,000  Level Atlanta Center
08:52 33.9650 -82.1178 North 466 536 33,000  Level Atlanta Center
08:53 34.0919 -82.0947 North 461 531 33,000  Level Atlanta Center
08:54 34.2231 -82.0742 North 466 536 33,000  Level Atlanta Center
08:55 34.3522 -82.0536 North 461 531 33,000  Level Atlanta Center
08:56 34.4686 -82.0306 North 461 531 33,000  Level Atlanta Center
08:57 34.5956 -82.0075 North 461 531 33,000  Level Atlanta Center
08:58 34.7267 -81.9842 North 461 531 33,000  Level Atlanta Center
08:59 34.8556 -81.9606 North 466 536 33,000  Level Atlanta Center
09:00 34.9847 -81.9372 North 466 536 33,000  Level Atlanta Center
09:01 35.1119 -81.9389 359° North 461 531 33,000  Level Atlanta Center
09:02 35.2394 -81.9586 353° North 461 531 33,000 -180 Level Atlanta Center
09:03 35.3650 -81.9783 353° North 461 531 32,700 -840 Descending Atlanta Center
09:04 35.5053 -81.9978 354° North 461 531 31,400 -1,980 Descending Atlanta Center
09:05 35.6328 -82.0150 354° North 466 536 28,800 -3,240 Descending Atlanta Center
09:06 35.7581 -82.0325 354° North 461 531 25,000 -3,900 Descending Atlanta Center
09:07 35.8794 -82.0500 353° North 449 517 21,100 -3,720 Descending Atlanta Center
09:08 35.9903 -82.0653 354° North 416 479 17,600 -3,900 Descending Atlanta Center
09:09 36.1011 -82.0806 354° North 403 464 13,300 -3,480 Descending Atlanta Center
09:10 36.2078 -82.0958 353° North 391 450 10,700 -1,800 Descending Atlanta Center
09:11 36.2997 -82.1092 353° North 351 404 9,700 -1,500 Descending Atlanta Center
09:12 36.3792 -82.1203 354° North 302 348 7,800 -1,800 Descending Atlanta Center
09:13 36.4542 -82.1286 355° North 276 318 6,200 -960 Descending Atlanta Center
09:14 36.5317 -82.1422 352° North 276 318 5,900 -780 Descending Atlanta Center
09:15 36.6011 -82.1769 338° Northwest 269 310 4,700 -1,020 Descending Atlanta Center
09:16 36.6186 -82.2386 289° West 236 272 3,900 -360 Descending Atlanta Center
09:17 36.5839 -82.2858 228° Southwest 164 189 4,000 -360 Climbing Atlanta Center
09:18 36.5447 -82.3306 223° Southwest 163 188 3,200 -840 Descending Atlanta Center
09:19 36.4667 -82.4000 219° Southwest  Level FlightAware Approximate
09:26 36.4752 -82.4074 325° Northwest  Level Estimated